When you browse on this site, cookies collect data to enhance your experience and personalize the content and advertising you see.
Visit our Privacy Policy to learn more. By continuing to use the site, you agree to this use of cookies and data.
  • In Schweiz
  • Länderverzeichnis
  • Für 7 Tage
  • Wassertemperatur
  • Satellitenkarten
  • Wetterkarte
  • Widgets
  • user-avatar
    Anmelden

    Stündliche Wetter Serhii

    Heute, 11 Dezember, Dienstag

    Zeit Temperatur Niederschläge Wind Luftdruck Luftfeuchtigkeit
    00:00 -2°C° 0.2 mm 1 m/S 672 mmHg 94%
    01:00 -2°C° 0.2 mm 1 m/S 672 mmHg 94%
    02:00 -3°C° 0 mm 1 m/S 672 mmHg 94%
    03:00 -3°C° 0.1 mm 1 m/S 672 mmHg 94%
    04:00 -3°C° 0.1 mm 1 m/S 672 mmHg 94%
    05:00 -3°C° 0.1 mm 1 m/S 672 mmHg 93%
    06:00 -4°C° 0 mm 1 m/S 672 mmHg 93%
    07:00 -5°C° 0 mm 0 m/S 672 mmHg 93%
    08:00 -5°C° 0 mm 0 m/S 672 mmHg 93%
    09:00 -3°C° 0 mm 1 m/S 673 mmHg 88%
    10:00 -2°C° 0 mm 1 m/S 673 mmHg 84%
    11:00 -1°C° 0 mm 1 m/S 673 mmHg 80%
    12:00 -1°C° 0 mm 1 m/S 673 mmHg 79%
    13:00 -1°C° 0 mm 1 m/S 674 mmHg 77%
    14:00 -1°C° 0 mm 1 m/S 674 mmHg 75%
    15:00 -2°C° 0 mm 1 m/S 674 mmHg 80%
    16:00 -4°C° 0 mm 0 m/S 674 mmHg 84%
    17:00 -5°C° 0 mm 0 m/S 674 mmHg 89%
    18:00 -6°C° 0 mm 0 m/S 674 mmHg 89%
    19:00 -6°C° 0 mm 1 m/S 674 mmHg 89%
    20:00 -6°C° 0 mm 1 m/S 674 mmHg 88%
    21:00 -6°C° 0 mm 1 m/S 674 mmHg 88%
    22:00 -7°C° 0 mm 1 m/S 674 mmHg 87%
    23:00 -7°C° 0 mm 1 m/S 674 mmHg 86%

    Morgen, 12 Dezember, Mittwoch

    Zeit Temperatur Niederschläge Wind Luftdruck Luftfeuchtigkeit
    00:00 -7°C° 0 mm 1 m/S 674 mmHg 86%
    01:00 -7°C° 0 mm 1 m/S 674 mmHg 85%
    02:00 -7°C° 0 mm 1 m/S 675 mmHg 85%
    03:00 -7°C° 0 mm 1 m/S 674 mmHg 85%
    04:00 -7°C° 0 mm 1 m/S 674 mmHg 84%
    05:00 -7°C° 0 mm 1 m/S 674 mmHg 84%
    06:00 -7°C° 0 mm 1 m/S 674 mmHg 84%
    07:00 -7°C° 0 mm 1 m/S 675 mmHg 84%
    08:00 -7°C° 0 mm 1 m/S 675 mmHg 85%
    09:00 -6°C° 0 mm 1 m/S 675 mmHg 81%
    10:00 -3°C° 0 mm 1 m/S 676 mmHg 78%
    11:00 -2°C° 0 mm 1 m/S 676 mmHg 74%
    12:00 -2°C° 0 mm 1 m/S 676 mmHg 74%
    13:00 -2°C° 0 mm 1 m/S 676 mmHg 74%
    14:00 -1°C° 0 mm 1 m/S 676 mmHg 73%
    15:00 -2°C° 0 mm 1 m/S 676 mmHg 78%
    16:00 -3°C° 0 mm 1 m/S 676 mmHg 84%
    17:00 -4°C° 0 mm 1 m/S 675 mmHg 89%
    18:00 -4°C° 0 mm 1 m/S 676 mmHg 89%
    19:00 -4°C° 0 mm 1 m/S 676 mmHg 89%
    20:00 -6°C° 0 mm 2 m/S 676 mmHg 90%
    21:00 -7°C° 0 mm 2 m/S 676 mmHg 90%
    22:00 -7°C° 0 mm 2 m/S 676 mmHg 90%
    23:00 -7°C° 0 mm 2 m/S 676 mmHg 90%

    übermorgen, 13 Dezember, Donnerstag

    Zeit Temperatur Niederschläge Wind Luftdruck Luftfeuchtigkeit
    00:00 -7°C° 0.1 mm 2 m/S 676 mmHg 89%
    01:00 -7°C° 0.1 mm 2 m/S 676 mmHg 88%
    02:00 -7°C° 0.1 mm 2 m/S 676 mmHg 88%
    03:00 -6°C° 0.1 mm 2 m/S 676 mmHg 88%
    04:00 -7°C° 0.1 mm 3 m/S 675 mmHg 88%
    05:00 -7°C° 0.1 mm 3 m/S 675 mmHg 88%
    06:00 -7°C° 0.3 mm 3 m/S 675 mmHg 89%
    07:00 -7°C° 0.3 mm 3 m/S 675 mmHg 89%
    08:00 -7°C° 0.3 mm 3 m/S 676 mmHg 89%
    09:00 -7°C° 0.2 mm 3 m/S 676 mmHg 88%
    10:00 -6°C° 0.2 mm 3 m/S 676 mmHg 86%
    11:00 -6°C° 0.2 mm 3 m/S 676 mmHg 85%
    12:00 -6°C° 0.2 mm 3 m/S 676 mmHg 84%
    13:00 -6°C° 0.2 mm 3 m/S 676 mmHg 84%
    14:00 -5°C° 0.2 mm 3 m/S 676 mmHg 83%
    15:00 -6°C° 0.2 mm 3 m/S 676 mmHg 86%
    16:00 -6°C° 0.2 mm 3 m/S 676 mmHg 89%
    17:00 -6°C° 0.2 mm 2 m/S 676 mmHg 91%
    18:00 -6°C° 0.1 mm 2 m/S 676 mmHg 91%
    19:00 -6°C° 0.1 mm 2 m/S 676 mmHg 92%
    20:00 -6°C° 0.1 mm 2 m/S 676 mmHg 92%
    21:00 -6°C° 0.1 mm 2 m/S 677 mmHg 92%
    22:00 -6°C° 0.1 mm 2 m/S 677 mmHg 91%
    23:00 -6°C° 0.1 mm 2 m/S 677 mmHg 91%

    14 Dezember, Freitag

    Zeit Temperatur Niederschläge Wind Luftdruck Luftfeuchtigkeit
    00:00 -7°C° 0.1 mm 2 m/S 677 mmHg 91%
    01:00 -7°C° 0.1 mm 2 m/S 677 mmHg 92%
    02:00 -7°C° 0.1 mm 2 m/S 677 mmHg 92%
    03:00 -7°C° 0.1 mm 2 m/S 677 mmHg 92%
    04:00 -7°C° 0.1 mm 2 m/S 677 mmHg 92%
    05:00 -8°C° 0.1 mm 2 m/S 677 mmHg 92%
    06:00 -8°C° 0.1 mm 2 m/S 678 mmHg 91%
    07:00 -7°C° 0.1 mm 1 m/S 678 mmHg 91%
    08:00 -7°C° 0.1 mm 1 m/S 678 mmHg 91%
    09:00 -6°C° 0 mm 1 m/S 679 mmHg 88%
    10:00 -4°C° 0 mm 1 m/S 679 mmHg 85%
    11:00 -5°C° 0 mm 2 m/S 680 mmHg 82%
    12:00 -5°C° 0 mm 2 m/S 680 mmHg 81%
    13:00 -4°C° 0 mm 2 m/S 680 mmHg 81%
    14:00 -2°C° 0 mm 1 m/S 680 mmHg 80%
    15:00 -3°C° 0 mm 1 m/S 680 mmHg 84%
    16:00 -4°C° 0 mm 1 m/S 680 mmHg 89%
    17:00 -4°C° 0 mm 1 m/S 680 mmHg 93%
    18:00 -6°C° 0 mm 1 m/S 680 mmHg 94%
    19:00 -6°C° 0 mm 1 m/S 680 mmHg 94%
    20:00 -6°C° 0 mm 1 m/S 680 mmHg 95%
    21:00 -6°C° 0 mm 1 m/S 680 mmHg 95%
    22:00 -6°C° 0 mm 1 m/S 681 mmHg 94%
    23:00 -6°C° 0 mm 1 m/S 681 mmHg 94%

    15 Dezember, Samstag

    Zeit Temperatur Niederschläge Wind Luftdruck Luftfeuchtigkeit
    00:00 -7°C° 0 mm 1 m/S 681 mmHg 94%
    01:00 -7°C° 0 mm 1 m/S 681 mmHg 94%
    02:00 -7°C° 0 mm 1 m/S 680 mmHg 94%
    03:00 -7°C° 0 mm 1 m/S 681 mmHg 94%
    04:00 -7°C° 0 mm 1 m/S 681 mmHg 94%
    05:00 -7°C° 0 mm 1 m/S 681 mmHg 94%
    06:00 -7°C° 0 mm 1 m/S 681 mmHg 94%
    07:00 -7°C° 0 mm 1 m/S 681 mmHg 94%
    08:00 -7°C° 0 mm 1 m/S 681 mmHg 94%
    09:00 -7°C° 0 mm 1 m/S 681 mmHg 92%
    10:00 -6°C° 0 mm 1 m/S 682 mmHg 89%
    11:00 -4°C° 0 mm 1 m/S 682 mmHg 86%
    12:00 -4°C° 0 mm 1 m/S 682 mmHg 87%
    13:00 -4°C° 0 mm 1 m/S 682 mmHg 87%
    14:00 -4°C° 0 mm 1 m/S 682 mmHg 87%
    15:00 -6°C° 0.2 mm 2 m/S 682 mmHg 89%
    16:00 -7°C° 0.2 mm 2 m/S 682 mmHg 91%
    17:00 -7°C° 0.2 mm 2 m/S 682 mmHg 94%
    18:00 -7°C° 0.3 mm 2 m/S 682 mmHg 94%
    19:00 -7°C° 0.3 mm 2 m/S 682 mmHg 94%
    20:00 -6°C° 0.3 mm 1 m/S 682 mmHg 94%
    21:00 -6°C° 0.3 mm 1 m/S 682 mmHg 94%
    22:00 -7°C° 0.3 mm 1 m/S 682 mmHg 94%
    23:00 -7°C° 0.3 mm 1 m/S 682 mmHg 95%

    16 Dezember, Sonntag

    Zeit Temperatur Niederschläge Wind Luftdruck Luftfeuchtigkeit
    00:00 -7°C° 0.3 mm 1 m/S 682 mmHg 95%
    01:00 -7°C° 0.3 mm 1 m/S 682 mmHg 95%
    02:00 -7°C° 0.3 mm 1 m/S 682 mmHg 95%
    03:00 -7°C° 0.2 mm 1 m/S 682 mmHg 95%
    04:00 -7°C° 0.2 mm 1 m/S 682 mmHg 95%
    05:00 -7°C° 0.2 mm 1 m/S 682 mmHg 95%
    06:00 -7°C° 0.2 mm 1 m/S 682 mmHg 95%
    07:00 -7°C° 0.2 mm 1 m/S 682 mmHg 95%
    08:00 -7°C° 0.2 mm 1 m/S 682 mmHg 95%
    09:00 -6°C° 0.3 mm 1 m/S 682 mmHg 93%
    10:00 -6°C° 0.3 mm 1 m/S 683 mmHg 92%
    11:00 -4°C° 0.3 mm 1 m/S 683 mmHg 90%
    12:00 -4°C° 0.2 mm 1 m/S 683 mmHg 90%
    13:00 -3°C° 0.2 mm 1 m/S 683 mmHg 90%
    14:00 -3°C° 0.2 mm 1 m/S 683 mmHg 90%
    15:00 -3°C° 0.3 mm 1 m/S 682 mmHg 92%
    16:00 -3°C° 0.3 mm 1 m/S 682 mmHg 94%
    17:00 -4°C° 0.3 mm 1 m/S 682 mmHg 96%
    18:00 -4°C° 0.1 mm 1 m/S 682 mmHg 96%
    19:00 -4°C° 0.1 mm 1 m/S 682 mmHg 96%
    20:00 -6°C° 0.1 mm 1 m/S 682 mmHg 95%
    21:00 -6°C° 0 mm 1 m/S 682 mmHg 95%
    22:00 -6°C° 0 mm 1 m/S 682 mmHg 95%
    23:00 -6°C° 0 mm 1 m/S 682 mmHg 94%
    Mehr zeigen